M I D A S
Marine Information and Data Acquisition System
Tripno 780 of the Zeeleeuw from 2004-08-18 07:47:36 to 2004-08-18 11:48:37
Back to CruiseResearch ActivitiesStationsMapUnderway DataData graphs

EquipmentUnitsComment
TimeDGPSUTC
LatitudeDGPSDM.mWGS84
LongitudeDGPSDM.mWGS84
HeadingGyrodeg 
SOGDGPSknotsSpeed over ground
COGDGPSdegCourse over ground
DepthEcho soundermeters200 kHz
Missing or incorrect values are displayed as -999
Navigation data collected by the RV Zeeleeuw from 2004-08-18 07:47:36 to 2004-08-18 11:48:37
                                                                                    Next 1000 lines
Time Latitude Longitude Heading SOG COG Depth
2004-08-18 07:47:44 51°13.596 2°56.114 125.5   50 7.1
2004-08-18 07:47:49 51°13.596 2°56.114 124.9   132 7
2004-08-18 07:47:54 51°13.596 2°56.114 124.4   170 7.1
2004-08-18 07:47:59 51°13.596 2°56.114 123.9   183 7.1
2004-08-18 07:48:04 51°13.596 2°56.114 123.3   188 7.1
2004-08-18 07:48:09 51°13.596 2°56.114 122.6   186 7.1
2004-08-18 07:48:14 51°13.596 2°56.114 122.2   190 7.1
2004-08-18 07:48:19 51°13.595 2°56.114 121.6   186 7.1
2004-08-18 07:48:24 51°13.595 2°56.114 120.9   187 7.1
2004-08-18 07:48:29 51°13.595 2°56.114 120.4 0.1 191 7.1
2004-08-18 07:48:33 51°13.595 2°56.114 119.5 0.1 191 7.1
2004-08-18 07:48:39 51°13.595 2°56.114 118.9 0.1 192 7.1
2004-08-18 07:48:44 51°13.595 2°56.114 117.9 0.1 194 7.1
2004-08-18 07:48:49 51°13.595 2°56.114 117.2 0.1 192 7.1
2004-08-18 07:48:53 51°13.595 2°56.114 116.4 0.1 195 7.1
2004-08-18 07:48:59 51°13.595 2°56.114 115.8 0.1 189 7.1
2004-08-18 07:49:04 51°13.595 2°56.114 114.8   43 7.1
2004-08-18 07:49:08 51°13.595 2°56.114 114.4 0.3 298 7.1
2004-08-18 07:49:14 51°13.596 2°56.112 114.3 0.5 302 7.1
2004-08-18 07:49:17 51°13.596 2°56.111 114.3 1.4 297 7
2004-08-18 07:49:24 51°13.598 2°56.106 114.4 1.7 299 7
2004-08-18 07:49:29 51°13.599 2°56.102 114.5 2 300 6.9
2004-08-18 07:49:35 51°13.601 2°56.097 114.6 2.2 299 -999
2004-08-18 07:49:40 51°13.603 2°56.092 114.6 2.4 299 -999
2004-08-18 07:49:44 51°13.604 2°56.088 114.6 2.5 298 -999
2004-08-18 07:49:49 51°13.606 2°56.083 114.6 2.8 298 -999
2004-08-18 07:49:55 51°13.609 2°56.076 114.4 2.9 298 6.8
2004-08-18 07:50:00 51°13.611 2°56.07 113.9 3.1 297 6.8
2004-08-18 07:50:05 51°13.613 2°56.064 113.2 3.2 296 -999
2004-08-18 07:50:08 51°13.614 2°56.06 112.1 3.4 294 -999
2004-08-18 07:50:13 51°13.616 2°56.053 110.9 3.5 293 7.9
2004-08-18 07:50:19 51°13.618 2°56.044 109.7 3.5 292 8.1
2004-08-18 07:50:25 51°13.62 2°56.036 108.1 3.3 289 8.1
2004-08-18 07:50:29 51°13.621 2°56.031 105.9 2.9 290 8
2004-08-18 07:50:33 51°13.621 2°56.028 104.6 1.7 291 8.6
2004-08-18 07:50:39 51°13.622 2°56.027 104.2 0.7 304 9.2
2004-08-18 07:50:44 51°13.622 2°56.028 106 0.6 87 8.4
2004-08-18 07:50:49 51°13.622 2°56.03 108.8 0.9 90 8.2
2004-08-18 07:50:53 51°13.621 2°56.031 113.9 0.7 101 7.9
2004-08-18 07:50:59 51°13.621 2°56.032 116.5 0.3 70 7.9
2004-08-18 07:51:04 51°13.622 2°56.031 118.3 0.5 316 7.9
2004-08-18 07:51:09 51°13.623 2°56.03 119.7 0.9 308 7.9
2004-08-18 07:51:15 51°13.624 2°56.026 120.6 1.2 302 7.8
2004-08-18 07:51:19 51°13.625 2°56.024 121.5 1.7 305 8
2004-08-18 07:51:24 51°13.627 2°56.02 121.9 2.2 303 4.7
2004-08-18 07:51:30 51°13.629 2°56.014 122.1 2.6 302 -999
2004-08-18 07:51:35 51°13.631 2°56.008 122.1 2.9 301 -999
2004-08-18 07:51:40 51°13.634 2°56.003 122 3.1 301 -999
2004-08-18 07:51:45 51°13.636 2°55.997 122 3.2 300 -999
2004-08-18 07:51:49 51°13.638 2°55.992 122 3.4 300 -999
2004-08-18 07:51:55 51°13.641 2°55.983 122.2 3.5 300 -999
2004-08-18 07:52:00 51°13.644 2°55.976 122.6 3.7 300 -999
2004-08-18 07:52:05 51°13.646 2°55.969 122.9 3.9 300 -999
2004-08-18 07:52:10 51°13.649 2°55.961 123.2 4.1 301 -999
2004-08-18 07:52:15 51°13.653 2°55.953 123.4 4.2 301 -999
2004-08-18 07:52:20 51°13.656 2°55.945 123.4 4.3 302 -999
2004-08-18 07:52:25 51°13.659 2°55.937 123 4.4 301 -999
2004-08-18 07:52:29 51°13.661 2°55.93 122.2 4.5 302 -999
2004-08-18 07:52:35 51°13.665 2°55.92 121.4 4.5 301 -999
2004-08-18 07:52:40 51°13.668 2°55.911 120.6 4.5 301 -999
2004-08-18 07:52:45 51°13.671 2°55.902 119.6 4.5 301 -999
2004-08-18 07:52:50 51°13.674 2°55.894 118.2 4.4 300 -999
2004-08-18 07:52:55 51°13.677 2°55.886 116.6 4.3 299 -999
2004-08-18 07:53:00 51°13.68 2°55.878 114.6 4.2 298 -999
2004-08-18 07:53:05 51°13.682 2°55.869 112.5 4.2 297 -999
2004-08-18 07:53:09 51°13.684 2°55.863 110.2 4.1 295 -999
2004-08-18 07:53:15 51°13.686 2°55.853 107.7 4.1 293 -999
2004-08-18 07:53:20 51°13.688 2°55.845 105.2 3.9 291 -999
2004-08-18 07:53:25 51°13.69 2°55.837 102.7 3.9 289 -999
2004-08-18 07:53:29 51°13.691 2°55.83 100.1 3.7 287 -999
2004-08-18 07:53:33 51°13.692 2°55.824 98.3 3.7 285 -999
2004-08-18 07:53:40 51°13.694 2°55.813 95.8 3.6 283 9.7
2004-08-18 07:53:44 51°13.695 2°55.807 93.6 3.5 281 -999
2004-08-18 07:53:49 51°13.695 2°55.8 91.5 3.4 279 11.5
2004-08-18 07:53:55 51°13.696 2°55.791 89.2 3.3 276 -999
2004-08-18 07:53:59 51°13.696 2°55.785 86.5 3.3 274 11.5
2004-08-18 07:54:04 51°13.696 2°55.778 83.8 3.2 271 12.1
2004-08-18 07:54:09 51°13.696 2°55.771 81.1 3.2 270 12.8
2004-08-18 07:54:15 51°13.696 2°55.763 78.1 3.1 267 12.8
2004-08-18 07:54:19 51°13.695 2°55.757 75 2.9 263 13.4
2004-08-18 07:54:23 51°13.695 2°55.752 71.8 2.8 260 13.1
2004-08-18 07:54:29 51°13.694 2°55.746 69.6 2.6 260 12.7
2004-08-18 07:54:33 51°13.693 2°55.742 66.9 2.1 259 12.6
2004-08-18 07:54:39 51°13.693 2°55.739 63.4 1.3 262 12.3
2004-08-18 07:54:44 51°13.693 2°55.738 57.6 0.7 279 11.9
2004-08-18 07:54:48 51°13.694 2°55.737 51.9 0.5 317 11.8
2004-08-18 07:54:53 51°13.695 2°55.737 46.9 0.8 5 11.3
2004-08-18 07:54:59 51°13.697 2°55.737 40.1 1.3 11 11.6
2004-08-18 07:55:04 51°13.699 2°55.738 31.2 1.6 11 12.6
2004-08-18 07:55:09 51°13.702 2°55.739 23.2 1.9 7 12.5
2004-08-18 07:55:14 51°13.705 2°55.739 15.3 2.4 1 12
2004-08-18 07:55:19 51°13.709 2°55.738 9.2 3 354 11.5
2004-08-18 07:55:24 51°13.713 2°55.737 0.8 3.4 347 10.7
2004-08-18 07:55:28 51°13.717 2°55.734 351.4 3.7 342 9.7
2004-08-18 07:55:34 51°13.723 2°55.73 342.1 3.8 331 9.2
2004-08-18 07:55:39 51°13.728 2°55.725 336 4 331 9
2004-08-18 07:55:44 51°13.733 2°55.721 333.1 4.1 328 9
2004-08-18 07:55:49 51°13.738 2°55.715 331 4.4 327 8.7
2004-08-18 07:55:53 51°13.742 2°55.71 330.6 5 325 8.9
2004-08-18 07:55:59 51°13.75 2°55.703 330.7 5.5 327 8.7
2004-08-18 07:56:04 51°13.757 2°55.695 331 5.8 325 8.4
2004-08-18 07:56:08 51°13.762 2°55.689 331.3 6.1 327 8.6
2004-08-18 07:56:14 51°13.771 2°55.68 331.6 6.5 327 9
2004-08-18 07:56:16 51°13.774 2°55.677 332.4 6.7 329 8.9
2004-08-18 07:56:24 51°13.788 2°55.664 333.8 7.1 330 9
2004-08-18 07:56:27 51°13.793 2°55.66 335.3 7.2 332 9.6
2004-08-18 07:56:33 51°13.804 2°55.65 336.4 7.5 332 9.6
2004-08-18 07:56:39 51°13.816 2°55.641 337.2 7.8 334 9.8
2004-08-18 07:56:44 51°13.826 2°55.634 338.4 8 334 9.6
2004-08-18 07:56:48 51°13.834 2°55.628 339 8.1 335 9.7
2004-08-18 07:56:52 51°13.842 2°55.622 339.5 8.3 336 9.8
2004-08-18 07:56:59 51°13.857 2°55.611 339.7 8.5 336 9.5
2004-08-18 07:57:04 51°13.868 2°55.604 339.9 8.6 336 9.6
2004-08-18 07:57:08 51°13.877 2°55.597 339.7 8.6 335 9
2004-08-18 07:57:12 51°13.885 2°55.591 339.6 8.7 336 8.9
2004-08-18 07:57:19 51°13.901 2°55.579 339.6 8.8 335 8.5
2004-08-18 07:57:24 51°13.912 2°55.571 339.8 8.8 335 8.7
2004-08-18 07:57:29 51°13.923 2°55.563 340 8.8 336 8.7
2004-08-18 07:57:32 51°13.93 2°55.558 340.1 8.9 335 9.2
2004-08-18 07:57:39 51°13.946 2°55.547 340.5 9 337 9.3
2004-08-18 07:57:44 51°13.957 2°55.539 340.9 9 336 9.9
2004-08-18 07:57:48 51°13.967 2°55.533 340.9 9.1 337 10.3
2004-08-18 07:57:54 51°13.981 2°55.523 341.1 9.1 337 10.7
2004-08-18 07:57:56 51°13.985 2°55.52 341.1 9.1 337 10.9
2004-08-18 07:58:04 51°14.004 2°55.508 341.2 9.1 337 10.4
2004-08-18 07:58:09 51°14.015 2°55.499 340.8 9.1 336 10.3
2004-08-18 07:58:13 51°14.024 2°55.493 339.9 9.1 336 10
2004-08-18 07:58:20 51°14.04 2°55.481 339.3 9.1 335 9.9
2004-08-18 07:58:24 51°14.049 2°55.474 339.8 9.1 336 9.8
2004-08-18 07:58:29 51°14.061 2°55.466 340.4 9.1 335 9.6
2004-08-18 07:58:32 51°14.068 2°55.461 340.4 9.1 336 9.7
2004-08-18 07:58:39 51°14.084 2°55.449 340.1 9.2 335 9.8
2004-08-18 07:58:44 51°14.096 2°55.44 339.1 9.4 335 10
2004-08-18 07:58:48 51°14.105 2°55.433 339.4 9.5 335 10.1
2004-08-18 07:58:54 51°14.12 2°55.422 340 9.8 336 10.3
2004-08-18 07:58:59 51°14.133 2°55.413 340.2 10 335 10.6
2004-08-18 07:59:04 51°14.146 2°55.404 339.7 10.1 334 10.7
2004-08-18 07:59:09 51°14.158 2°55.394 338.9 10.2 334 10.9
2004-08-18 07:59:13 51°14.169 2°55.385 337.9 10.3 333 11
2004-08-18 07:59:19 51°14.184 2°55.371 336.7 10.4 330 10.8
2004-08-18 07:59:24 51°14.196 2°55.359 335.1 10.4 329 10.7
2004-08-18 07:59:29 51°14.208 2°55.347 333 10.4 327 10.9
2004-08-18 07:59:35 51°14.222 2°55.33 330.2 10.4 324 10.8
2004-08-18 07:59:39 51°14.231 2°55.318 327.2 10.5 320 10.6
2004-08-18 07:59:44 51°14.241 2°55.302 324.1 10.5 318 10.7
2004-08-18 07:59:49 51°14.252 2°55.286 321.7 10.6 316 10.3
2004-08-18 07:59:53 51°14.26 2°55.273 320.7 10.6 316 10.3
2004-08-18 07:59:59 51°14.273 2°55.253 320 10.6 315 10.4
2004-08-18 08:00:04 51°14.283 2°55.235 318.4 10.8 312 10.2
2004-08-18 08:00:08 51°14.291 2°55.221 316.8 10.9 312 10.2
2004-08-18 08:00:13 51°14.301 2°55.203 316.8 11 312 10.1
2004-08-18 08:00:19 51°14.313 2°55.181 317.1 11 312 9.9
2004-08-18 08:00:24 51°14.323 2°55.163 316.4 11.1 310 9.7
2004-08-18 08:00:29 51°14.333 2°55.144 315 11.1 310 9.6
2004-08-18 08:00:31 51°14.337 2°55.136 314.3 11.1 309 9.6
2004-08-18 08:00:39 51°14.352 2°55.106 313.5 11.2 308 9.4
2004-08-18 08:00:43 51°14.36 2°55.089 312 11.2 306 9.5
2004-08-18 08:00:49 51°14.371 2°55.065 310.9 11.5 307 9.8
2004-08-18 08:00:54 51°14.38 2°55.043 310.5 12 305 9.9
2004-08-18 08:00:59 51°14.39 2°55.02 309.5 12.4 304 9.9
2004-08-18 08:01:03 51°14.398 2°55.002 308.9 12.6 303 9.8
2004-08-18 08:01:08 51°14.407 2°54.978 307.9 12.8 302 9.9
2004-08-18 08:01:13 51°14.416 2°54.953 306.1 13 299 9.6
2004-08-18 08:01:19 51°14.427 2°54.922 304.6 13.1 299 9.8
2004-08-18 08:01:24 51°14.434 2°54.895 302.3 13.3 295 9.6
2004-08-18 08:01:29 51°14.442 2°54.868 300 13.4 293 9.7
2004-08-18 08:01:33 51°14.447 2°54.846 298.4 13.4 292 9.8
2004-08-18 08:01:39 51°14.455 2°54.812 296.5 13.5 289 9.7
2004-08-18 08:01:44 51°14.46 2°54.783 294.7 13.6 288 9.8
2004-08-18 08:01:49 51°14.466 2°54.754 293.4 13.6 287 9.8
2004-08-18 08:01:54 51°14.471 2°54.725 292.5 13.7 287 9.7
2004-08-18 08:01:59 51°14.476 2°54.696 291.5 13.8 285 9.6
2004-08-18 08:02:05 51°14.482 2°54.66 290.3 13.8 284 9.9
2004-08-18 08:02:09 51°14.485 2°54.636 289.5 13.8 283 9.7
2004-08-18 08:02:13 51°14.489 2°54.612 288.8 13.8 283 9.8
2004-08-18 08:02:19 51°14.493 2°54.576 286.6 13.9 278 9.8
2004-08-18 08:02:24 51°14.495 2°54.546 283.9 13.9 277 9.8
2004-08-18 08:02:29 51°14.496 2°54.515 281.5 13.9 275 9.7
2004-08-18 08:02:33 51°14.497 2°54.491 279.5 13.9 274 9.8
2004-08-18 08:02:39 51°14.498 2°54.454 278.2 13.9 273 9.7
2004-08-18 08:02:44 51°14.499 2°54.423 277.2 13.9 271 9.9
2004-08-18 08:02:49 51°14.499 2°54.392 275.6 13.9 269 9.6
2004-08-18 08:02:54 51°14.497 2°54.361 273.3 13.9 266 9.7
2004-08-18 08:02:59 51°14.494 2°54.331 269.2 13.9 262 9.7
2004-08-18 08:03:04 51°14.491 2°54.301 265.4 13.9 259 9.8
2004-08-18 08:03:09 51°14.486 2°54.271 262 13.9 256 9.9
2004-08-18 08:03:13 51°14.482 2°54.247 259.4 13.8 255 9.6
2004-08-18 08:03:19 51°14.474 2°54.213 255.9 13.8 251 9.1
2004-08-18 08:03:24 51°14.466 2°54.186 251.8 13.7 246 8.6
2004-08-18 08:03:29 51°14.457 2°54.159 248 13.6 242 8.6
2004-08-18 08:03:35 51°14.445 2°54.128 244.8 13.6 241 8.7
2004-08-18 08:03:39 51°14.437 2°54.108 243 13.6 238 8.6
2004-08-18 08:03:44 51°14.427 2°54.083 240.7 13.7 237 8.6
2004-08-18 08:03:49 51°14.416 2°54.057 239.8 13.7 237 8.6
2004-08-18 08:03:53 51°14.408 2°54.037 239.7 13.7 237 8.6
2004-08-18 08:03:59 51°14.396 2°54.006 239.7 13.8 237 8.5
2004-08-18 08:04:04 51°14.385 2°53.98 239.8 13.9 237 8.6
2004-08-18 08:04:09 51°14.375 2°53.954 240.4 13.9 238 8.6
2004-08-18 08:04:14 51°14.365 2°53.928 240.8 13.9 238 8.5
2004-08-18 08:04:19 51°14.355 2°53.901 241.8 13.9 239 8.5
2004-08-18 08:04:24 51°14.345 2°53.875 242.6 13.9 240 8.5
2004-08-18 08:04:29 51°14.336 2°53.848 243.3 14 241 8.4
2004-08-18 08:04:32 51°14.33 2°53.832 244.1 14 241 8.5
2004-08-18 08:04:39 51°14.317 2°53.794 244.5 14 241 8.4
2004-08-18 08:04:44 51°14.308 2°53.767 244.5 14 241 8.6
2004-08-18 08:04:49 51°14.298 2°53.74 244.7 14.1 241 8.5
2004-08-18 08:04:55 51°14.286 2°53.707 244.2 14 240 8.5
2004-08-18 08:04:59 51°14.278 2°53.686 243.3 14.1 239 8.5
2004-08-18 08:05:04 51°14.268 2°53.66 242 14.1 238 8.5
2004-08-18 08:05:09 51°14.257 2°53.634 240.9 14.1 237 8.6
2004-08-18 08:05:15 51°14.244 2°53.603 240.4 14.1 237 8.6
2004-08-18 08:05:19 51°14.236 2°53.582 240.3 14.1 237 8.5
2004-08-18 08:05:24 51°14.225 2°53.555 240.6 14.1 238 8.6
2004-08-18 08:05:29 51°14.215 2°53.529 241.1 14.1 238 8.6
2004-08-18 08:05:35 51°14.202 2°53.497 241.2 14.2 237 8.5
2004-08-18 08:05:39 51°14.194 2°53.476 241.3 14.2 238 8.6
2004-08-18 08:05:44 51°14.184 2°53.449 242 14.2 239 8.6
2004-08-18 08:05:49 51°14.174 2°53.422 242.7 14.2 240 8.7
2004-08-18 08:05:51 51°14.17 2°53.411 243.3 14.2 240 8.7
2004-08-18 08:05:59 51°14.154 2°53.368 243.6 14.2 240 8.7
2004-08-18 08:06:04 51°14.144 2°53.34 243.7 14.2 239 8.7
2004-08-18 08:06:09 51°14.134 2°53.313 243.5 14.2 240 8.7
2004-08-18 08:06:13 51°14.126 2°53.292 242.9 14.2 238 8.8
2004-08-18 08:06:19 51°14.113 2°53.259 242.5 14.3 239 8.8
2004-08-18 08:06:23 51°14.105 2°53.238 242.1 14.2 238 8.8
2004-08-18 08:06:29 51°14.092 2°53.206 241.3 14.2 237 8.9
2004-08-18 08:06:34 51°14.081 2°53.18 240.7 14.3 237 8.9
2004-08-18 08:06:39 51°14.07 2°53.154 240.4 14.3 236 8.8
2004-08-18 08:06:44 51°14.059 2°53.127 240 14.3 236 9
2004-08-18 08:06:49 51°14.048 2°53.101 239.9 14.3 237 9
2004-08-18 08:06:55 51°14.035 2°53.069 240 14.3 237 9
2004-08-18 08:06:59 51°14.027 2°53.048 240.1 14.3 238 9
2004-08-18 08:07:04 51°14.016 2°53.021 240.9 14.3 238 9
2004-08-18 08:07:09 51°14.006 2°52.994 241.9 14.3 239 9.1
2004-08-18 08:07:15 51°13.994 2°52.962 242.4 14.3 239 9
2004-08-18 08:07:19 51°13.986 2°52.94 242.7 14.3 239 9.1
2004-08-18 08:07:24 51°13.976 2°52.912 243.7 14.3 240 9.2
2004-08-18 08:07:29 51°13.966 2°52.885 243.8 14.3 240 9.2
2004-08-18 08:07:34 51°13.956 2°52.857 243.3 14.4 239 9.1
2004-08-18 08:07:39 51°13.945 2°52.83 243.2 14.4 239 9.2
2004-08-18 08:07:44 51°13.935 2°52.803 243 14.4 239 9.2
2004-08-18 08:07:49 51°13.925 2°52.776 242.3 14.4 238 9.3
2004-08-18 08:07:53 51°13.916 2°52.754 242.3 14.4 239 9.3
2004-08-18 08:07:59 51°13.904 2°52.722 242 14.4 238 9.3
2004-08-18 08:08:04 51°13.893 2°52.695 241.5 14.4 238 9.3
2004-08-18 08:08:09 51°13.882 2°52.668 241.2 14.4 237 9.3
2004-08-18 08:08:14 51°13.871 2°52.641 241.2 14.4 238 9.3
2004-08-18 08:08:19 51°13.86 2°52.615 240.9 14.4 237 9.3
2004-08-18 08:08:25 51°13.848 2°52.583 240.6 14.4 237 9.4
2004-08-18 08:08:29 51°13.839 2°52.562 240.8 14.4 237 9.3
2004-08-18 08:08:33 51°13.83 2°52.54 240.9 14.4 237 9.4
2004-08-18 08:08:39 51°13.818 2°52.508 241.1 14.4 238 9.3
2004-08-18 08:08:44 51°13.807 2°52.481 241.7 14.3 239 9.4
2004-08-18 08:08:47 51°13.801 2°52.465 242.3 14.3 239 9.4
2004-08-18 08:08:53 51°13.789 2°52.432 242.5 14.4 239 9.4
2004-08-18 08:08:59 51°13.777 2°52.399 243.1 14.3 239 9.4
2004-08-18 08:09:04 51°13.766 2°52.372 243.2 14.4 239 9.4
2004-08-18 08:09:09 51°13.756 2°52.345 243.6 14.4 240 9.4
2004-08-18 08:09:12 51°13.75 2°52.329 243.7 14.3 239 9.3
2004-08-18 08:09:19 51°13.736 2°52.29 243.5 14.4 240 9.4
2004-08-18 08:09:24 51°13.726 2°52.263 243.5 14.3 239 9.5
2004-08-18 08:09:29 51°13.716 2°52.236 243 14.3 239 9.5
2004-08-18 08:09:34 51°13.705 2°52.209 242.4 14.4 238 9.5
2004-08-18 08:09:39 51°13.695 2°52.182 242 14.4 238 9.5
2004-08-18 08:09:44 51°13.684 2°52.156 241.5 14.3 237 9.6
2004-08-18 08:09:49 51°13.673 2°52.129 240.5 14.4 236 9.5
2004-08-18 08:09:53 51°13.664 2°52.108 240.2 14.4 237 9.6
2004-08-18 08:09:59 51°13.651 2°52.076 240.3 14.3 237 9.5
2004-08-18 08:10:04 51°13.64 2°52.049 240.4 14.4 237 9.5
2004-08-18 08:10:07 51°13.634 2°52.033 241.1 14.3 238 9.5
2004-08-18 08:10:13 51°13.621 2°52.001 241.6 14.3 238 9.5
2004-08-18 08:10:19 51°13.608 2°51.969 241.6 14.4 238 9.5
2004-08-18 08:10:24 51°13.598 2°51.942 242.3 14.4 238 9.4
2004-08-18 08:10:28 51°13.59 2°51.92 242.7 14.4 239 9.4
2004-08-18 08:10:33 51°13.58 2°51.892 243.3 14.4 239 9.5
2004-08-18 08:10:39 51°13.567 2°51.86 243.6 14.4 239 9.4
2004-08-18 08:10:44 51°13.557 2°51.832 243.5 14.4 239 9.5
2004-08-18 08:10:48 51°13.549 2°51.811 243.3 14.4 238 9.5
2004-08-18 08:10:53 51°13.538 2°51.784 242.4 14.4 238 9.5
2004-08-18 08:10:57 51°13.53 2°51.762 242 14.4 238 9.4
2004-08-18 08:11:04 51°13.514 2°51.725 241.3 14.4 237 9.4
2004-08-18 08:11:08 51°13.506 2°51.703 241 14.4 237 9.4
2004-08-18 08:11:13 51°13.495 2°51.677 241.2 14.4 237 9.5
2004-08-18 08:11:19 51°13.482 2°51.645 241.2 14.4 238 9.5
2004-08-18 08:11:24 51°13.471 2°51.618 241.6 14.4 238 9.6
2004-08-18 08:11:29 51°13.461 2°51.59 242.6 14.4 239 9.6
2004-08-18 08:11:33 51°13.453 2°51.569 243.1 14.4 239 9.6
2004-08-18 08:11:39 51°13.44 2°51.535 243.6 14.4 240 9.7
2004-08-18 08:11:44 51°13.43 2°51.508 243.9 14.4 239 9.6
2004-08-18 08:11:49 51°13.421 2°51.48 244 14.4 240 9.7
2004-08-18 08:11:54 51°13.41 2°51.453 244.2 14.3 240 9.7
2004-08-18 08:11:59 51°13.4 2°51.425 243.9 14.4 240 9.7
2004-08-18 08:12:04 51°13.39 2°51.398 243.8 14.4 238 9.8
2004-08-18 08:12:09 51°13.38 2°51.371 243.2 14.3 239 9.7
2004-08-18 08:12:14 51°13.369 2°51.344 242.4 14.4 237 9.7
2004-08-18 08:12:16 51°13.364 2°51.333 242 14.4 238 9.7
2004-08-18 08:12:24 51°13.347 2°51.291 241.9 14.3 237 9.7
2004-08-18 08:12:29 51°13.337 2°51.264 241.6 14.4 237 9.7
2004-08-18 08:12:34 51°13.326 2°51.237 242 14.4 238 9.7
2004-08-18 08:12:37 51°13.32 2°51.221 242.4 14.4 239 9.6
2004-08-18 08:12:45 51°13.304 2°51.177 243 14.4 239 9.7
2004-08-18 08:12:49 51°13.296 2°51.155 243.5 14.4 240 9.8
2004-08-18 08:12:53 51°13.288 2°51.133 244 14.3 240 9.8
2004-08-18 08:12:59 51°13.276 2°51.1 244.2 14.4 240 9.7
2004-08-18 08:13:05 51°13.264 2°51.067 244.5 14.4 240 9.8
2004-08-18 08:13:09 51°13.256 2°51.045 244.5 14.4 239 9.8
2004-08-18 08:13:13 51°13.248 2°51.023 243.8 14.4 239 9.8
2004-08-18 08:13:19 51°13.235 2°50.991 243.4 14.3 238 9.8
2004-08-18 08:13:24 51°13.224 2°50.964 242.4 14.3 238 9.8
2004-08-18 08:13:29 51°13.214 2°50.937 242.2 14.4 238 9.9
2004-08-18 08:13:33 51°13.206 2°50.915 242.2 14.3 238 9.8
2004-08-18 08:13:39 51°13.193 2°50.883 242.2 14.3 238 9.8
2004-08-18 08:13:44 51°13.183 2°50.855 242.3 14.3 239 9.8
2004-08-18 08:13:49 51°13.173 2°50.828 242.9 14.3 239 9.9
2004-08-18 08:13:53 51°13.165 2°50.806 243.9 14.3 240 9.9
2004-08-18 08:13:59 51°13.153 2°50.773 244.7 14.4 241 10.1
2004-08-18 08:14:04 51°13.144 2°50.745 245.5 14.3 242 10
2004-08-18 08:14:08 51°13.136 2°50.723 246.1 14.3 242 9.9
2004-08-18 08:14:15 51°13.124 2°50.683 246.7 14.3 242 9.9
2004-08-18 08:14:19 51°13.116 2°50.661 247 14.4 242 10
2004-08-18 08:14:24 51°13.107 2°50.633 247.1 14.3 242 10
2004-08-18 08:14:28 51°13.1 2°50.61 246.8 14.3 242 9.9
2004-08-18 08:14:35 51°13.086 2°50.571 246.3 14.3 241 10
2004-08-18 08:14:39 51°13.078 2°50.55 245.4 14.4 240 10.1
2004-08-18 08:14:44 51°13.068 2°50.522 244.5 14.3 240 10
2004-08-18 08:14:49 51°13.058 2°50.495 243.8 14.4 239 10
2004-08-18 08:14:54 51°13.048 2°50.467 243.6 14.4 240 10
2004-08-18 08:14:59 51°13.038 2°50.44 243.8 14.3 240 10
2004-08-18 08:15:05 51°13.026 2°50.407 244.1 14.3 240 10.1
2004-08-18 08:15:08 51°13.02 2°50.391 244.5 14.4 240 10.1
2004-08-18 08:15:13 51°13.01 2°50.363 244.7 14.4 241 10.1
2004-08-18 08:15:19 51°12.999 2°50.33 245.1 14.3 241 10.1
2004-08-18 08:15:24 51°12.989 2°50.302 245.3 14.4 241 10.1
2004-08-18 08:15:29 51°12.979 2°50.274 245.6 14.4 241 10.1
2004-08-18 08:15:35 51°12.968 2°50.241 245.9 14.4 241 10.1
2004-08-18 08:15:39 51°12.96 2°50.219 246 14.4 242 10.1
2004-08-18 08:15:44 51°12.951 2°50.191 246.1 14.4 242 10.2
2004-08-18 08:15:49 51°12.941 2°50.163 246.1 14.4 242 10.2
2004-08-18 08:15:53 51°12.934 2°50.141 246.1 14.4 242 10.2
2004-08-18 08:15:59 51°12.922 2°50.107 245.9 14.4 241 10.2
2004-08-18 08:16:04 51°12.912 2°50.08 245.4 14.4 241 10.2
2004-08-18 08:16:09 51°12.903 2°50.052 244.9 14.4 240 10.2
2004-08-18 08:16:14 51°12.893 2°50.025 244.6 14.4 240 10.2
2004-08-18 08:16:19 51°12.882 2°49.997 244.2 14.4 239 10.2
2004-08-18 08:16:24 51°12.872 2°49.97 244 14.4 240 10.2
2004-08-18 08:16:29 51°12.862 2°49.942 244.2 14.4 240 10.3
2004-08-18 08:16:33 51°12.854 2°49.92 244.5 14.4 241 10.3
2004-08-18 08:16:39 51°12.843 2°49.887 244.9 14.4 241 10.2
2004-08-18 08:16:44 51°12.833 2°49.859 245.5 14.4 242 10.2
2004-08-18 08:16:47 51°12.828 2°49.842 246 14.4 242 10.2
2004-08-18 08:16:54 51°12.814 2°49.802 246.1 14.4 242 10.3
2004-08-18 08:16:59 51°12.804 2°49.774 246 14.4 241 10.3
2004-08-18 08:17:04 51°12.795 2°49.746 245.7 14.4 241 10.3
2004-08-18 08:17:09 51°12.785 2°49.718 245.5 14.4 241 10.3
2004-08-18 08:17:15 51°12.773 2°49.685 245.3 14.4 240 10.2
2004-08-18 08:17:19 51°12.765 2°49.663 244.8 14.4 240 10.3
2004-08-18 08:17:24 51°12.755 2°49.635 244.7 14.4 240 10.2
2004-08-18 08:17:29 51°12.745 2°49.608 244.5 14.4 240 10.3
2004-08-18 08:17:32 51°12.739 2°49.591 244.4 14.4 240 10.3
2004-08-18 08:17:39 51°12.725 2°49.553 244.4 14.4 240 10.3
2004-08-18 08:17:44 51°12.715 2°49.525 244.3 14.4 240 10.3
2004-08-18 08:17:49 51°12.705 2°49.498 244.3 14.4 240 10.4
2004-08-18 08:17:54 51°12.695 2°49.47 244.3 14.4 240 10.3
2004-08-18 08:17:59 51°12.685 2°49.443 244.3 14.4 240 10.3
2004-08-18 08:18:04 51°12.676 2°49.415 244.5 14.4 241 10.4
2004-08-18 08:18:09 51°12.666 2°49.387 245 14.3 241 10.3
2004-08-18 08:18:15 51°12.654 2°49.354 245.1 14.4 241 10.4
2004-08-18 08:18:19 51°12.647 2°49.331 245.3 14.4 242 10.4
2004-08-18 08:18:24 51°12.638 2°49.303 246 14.3 242 10.4
2004-08-18 08:18:29 51°12.628 2°49.275 245.8 14.4 242 10.5
2004-08-18 08:18:35 51°12.617 2°49.242 246 14.4 241 10.4
2004-08-18 08:18:39 51°12.609 2°49.22 245.8 14.4 242 10.6
2004-08-18 08:18:44 51°12.6 2°49.192 245.8 14.4 241 10.5
2004-08-18 08:18:49 51°12.59 2°49.164 245.6 14.4 241 10.5
2004-08-18 08:18:53 51°12.582 2°49.142 245.2 14.4 241 10.5
2004-08-18 08:18:59 51°12.571 2°49.109 245 14.4 240 10.6
2004-08-18 08:19:05 51°12.559 2°49.075 244.9 14.4 241 10.5
2004-08-18 08:19:07 51°12.555 2°49.064 244.9 14.4 241 10.5
2004-08-18 08:19:13 51°12.544 2°49.031 245.3 14.4 241 10.6
2004-08-18 08:19:19 51°12.532 2°48.997 245.6 14.4 241 10.5
2004-08-18 08:19:23 51°12.525 2°48.975 246 14.4 242 10.5
2004-08-18 08:19:29 51°12.514 2°48.941 246.3 14.4 242 10.5
2004-08-18 08:19:33 51°12.506 2°48.918 246.3 14.4 242 10.5
2004-08-18 08:19:39 51°12.495 2°48.885 246.2 14.4 242 10.4
2004-08-18 08:19:44 51°12.485 2°48.857 245.8 14.4 241 10.5
2004-08-18 08:19:49 51°12.476 2°48.83 245.3 14.4 241 10.6
2004-08-18 08:19:54 51°12.466 2°48.802 245 14.4 240 10.6
2004-08-18 08:20:00 51°12.454 2°48.769 244.5 14.4 241 10.5
2004-08-18 08:20:04 51°12.446 2°48.747 244.4 14.4 240 10.5
2004-08-18 08:20:08 51°12.438 2°48.725 244.5 14.4 240 10.6
2004-08-18 08:20:13 51°12.428 2°48.697 244.4 14.4 240 10.6
2004-08-18 08:20:19 51°12.417 2°48.664 244.5 14.4 241 10.7
2004-08-18 08:20:24 51°12.407 2°48.636 244.6 14.4 240 10.6
2004-08-18 08:20:29 51°12.397 2°48.609 245 14.4 241 10.6
2004-08-18 08:20:34 51°12.388 2°48.581 245.4 14.4 241 10.6
2004-08-18 08:20:39 51°12.378 2°48.553 245.5 14.4 241 10.6
2004-08-18 08:20:44 51°12.369 2°48.525 245.9 14.4 242 10.6
2004-08-18 08:20:49 51°12.359 2°48.498 245.9 14.3 242 10.6
2004-08-18 08:20:53 51°12.352 2°48.475 246 14.3 242 10.6
2004-08-18 08:20:59 51°12.34 2°48.442 245.9 14.3 241 10.7
2004-08-18 08:21:04 51°12.331 2°48.414 245.9 14.3 241 10.7
2004-08-18 08:21:09 51°12.321 2°48.387 245.5 14.3 241 10.7
2004-08-18 08:21:13 51°12.313 2°48.365 245.1 14.3 241 10.8
2004-08-18 08:21:19 51°12.301 2°48.332 244.7 14.3 240 10.7
2004-08-18 08:21:24 51°12.292 2°48.305 244.6 14.3 240 10.7
2004-08-18 08:21:28 51°12.284 2°48.283 244.4 14.3 240 10.6
2004-08-18 08:21:33 51°12.274 2°48.255 244.6 14.4 241 10.6
2004-08-18 08:21:39 51°12.262 2°48.222 245.1 14.3 241 10.6
2004-08-18 08:21:44 51°12.253 2°48.195 245.1 14.3 241 10.6
2004-08-18 08:21:48 51°12.245 2°48.173 244.9 14.4 240 10.8
2004-08-18 08:21:53 51°12.235 2°48.145 244.8 14.4 240 10.8
2004-08-18 08:21:59 51°12.223 2°48.112 244.8 14.4 240 10.7
2004-08-18 08:22:04 51°12.213 2°48.084 244.5 14.4 240 10.7
2004-08-18 08:22:09 51°12.203 2°48.057 244.4 14.4 240 10.7
2004-08-18 08:22:14 51°12.193 2°48.029 244.5 14.4 241 10.8
2004-08-18 08:22:20 51°12.182 2°47.996 244.5 14.4 241 10.8
2004-08-18 08:22:24 51°12.174 2°47.974 244.6 14.4 241 10.8
2004-08-18 08:22:29 51°12.164 2°47.946 245.3 14.4 241 10.8
2004-08-18 08:22:32 51°12.159 2°47.929 245.6 14.4 242 10.8
2004-08-18 08:22:39 51°12.145 2°47.89 246 14.4 242 10.7
2004-08-18 08:22:44 51°12.136 2°47.861 246.1 14.4 242 10.7
2004-08-18 08:22:49 51°12.127 2°47.832 246.2 14.4 242 10.7
2004-08-18 08:22:53 51°12.119 2°47.81 246 14.4 242 10.6
2004-08-18 08:22:59 51°12.108 2°47.777 245.5 14.4 241 10.7
2004-08-18 08:23:04 51°12.098 2°47.749 245.3 14.4 241 10.7
2004-08-18 08:23:09 51°12.088 2°47.721 245.3 14.4 241 10.7
2004-08-18 08:23:13 51°12.081 2°47.699 245.2 14.4 241 10.7
2004-08-18 08:23:19 51°12.068 2°47.666 244.9 14.4 241 10.7
2004-08-18 08:23:24 51°12.058 2°47.639 244.7 14.4 240 10.7
2004-08-18 08:23:29 51°12.048 2°47.611 244.5 14.4 241 10.7
2004-08-18 08:23:34 51°12.039 2°47.583 244.5 14.4 241 10.6
2004-08-18 08:23:37 51°12.033 2°47.566 244.8 14.4 241 10.6
2004-08-18 08:23:44 51°12.02 2°47.526 245 14.5 241 10.7
2004-08-18 08:23:49 51°12.01 2°47.498 245.3 14.5 242 10.7
2004-08-18 08:23:55 51°11.999 2°47.464 245.9 14.4 242 10.6
2004-08-18 08:23:59 51°11.992 2°47.442 246.2 14.4 242 10.6
2004-08-18 08:24:04 51°11.982 2°47.413 246.2 14.5 242 10.6
2004-08-18 08:24:09 51°11.973 2°47.385 246.2 14.4 242 10.7
2004-08-18 08:24:13 51°11.965 2°47.363 245.5 14.5 241 10.7
2004-08-18 08:24:19 51°11.954 2°47.329 245.3 14.4 242 10.7
2004-08-18 08:24:24 51°11.944 2°47.301 245.3 14.4 241 10.6
2004-08-18 08:24:29 51°11.934 2°47.273 245.3 14.4 242 10.6
2004-08-18 08:24:34 51°11.925 2°47.245 245.3 14.4 241 10.6
2004-08-18 08:24:39 51°11.916 2°47.217 245.6 14.4 242 10.6
2004-08-18 08:24:44 51°11.906 2°47.189 246 14.4 242 10.6
2004-08-18 08:24:49 51°11.897 2°47.161 246.1 14.4 242 10.6
2004-08-18 08:24:53 51°11.89 2°47.139 246.1 14.4 242 10.6
2004-08-18 08:24:59 51°11.879 2°47.105 246.3 14.4 242 10.5
2004-08-18 08:25:04 51°11.869 2°47.077 246.2 14.4 243 10.5
2004-08-18 08:25:09 51°11.86 2°47.049 246.2 14.3 242 10.5
2004-08-18 08:25:14 51°11.85 2°47.021 245.6 14.4 242 10.5
2004-08-18 08:25:17 51°11.845 2°47.004 245.4 14.4 241 10.5
2004-08-18 08:25:24 51°11.831 2°46.965 244.9 14.3 241 10.6
2004-08-18 08:25:29 51°11.821 2°46.938 244.5 14.4 241 10.5
2004-08-18 08:25:32 51°11.816 2°46.921 244.4 14.4 241 10.5
2004-08-18 08:25:39 51°11.802 2°46.883 244.3 14.3 241 10.5
2004-08-18 08:25:45 51°11.79 2°46.849 244.3 14.4 241 10.5
2004-08-18 08:25:49 51°11.783 2°46.827 244.3 14.3 241 10.6
2004-08-18 08:25:53 51°11.775 2°46.805 244.5 14.4 241 10.5
2004-08-18 08:25:59 51°11.763 2°46.772 244.8 14.3 241 10.5
2004-08-18 08:26:04 51°11.754 2°46.744 245 14.3 241 10.5
2004-08-18 08:26:08 51°11.746 2°46.722 245 14.3 241 10.4
2004-08-18 08:26:15 51°11.732 2°46.684 243.8 14.3 240 10.4
2004-08-18 08:26:19 51°11.723 2°46.663 242.3 14.3 238 10.4
2004-08-18 08:26:24 51°11.713 2°46.636 241 14.3 237 10.4
2004-08-18 08:26:29 51°11.702 2°46.61 239.8 14.3 236 10.3
2004-08-18 08:26:34 51°11.691 2°46.584 239.3 14.2 236 10.4
2004-08-18 08:26:39 51°11.679 2°46.558 238.5 14.2 235 10.3
2004-08-18 08:26:44 51°11.668 2°46.533 237.9 14.2 235 10.3
2004-08-18 08:26:49 51°11.656 2°46.508 237.9 14.2 235 10.3
2004-08-18 08:26:54 51°11.645 2°46.482 237.8 14.3 236 10.3
2004-08-18 08:26:59 51°11.634 2°46.456 238.4 14.2 236 10.3
2004-08-18 08:27:04 51°11.623 2°46.43 238.7 14.2 236 10.3
2004-08-18 08:27:09 51°11.612 2°46.403 238.7 14.2 236 10.2
2004-08-18 08:27:14 51°11.602 2°46.377 239.4 14.2 237 10.2
2004-08-18 08:27:17 51°11.595 2°46.36 240.7 14.3 239 10.1
2004-08-18 08:27:24 51°11.582 2°46.322 242.2 14.3 241 10.2
2004-08-18 08:27:29 51°11.573 2°46.294 243.8 14.2 242 10.2
2004-08-18 08:27:32 51°11.568 2°46.277 246.2 14.2 244 10.1
2004-08-18 08:27:39 51°11.556 2°46.237 247.5 14.3 244 10.1
2004-08-18 08:27:44 51°11.548 2°46.208 249.3 14.3 246 10.1
2004-08-18 08:27:48 51°11.541 2°46.185 249.8 14.2 246 10.1
2004-08-18 08:27:53 51°11.534 2°46.156 250.2 14.3 247 10.1
2004-08-18 08:27:59 51°11.524 2°46.121 250.5 14.3 247 10.1
2004-08-18 08:28:04 51°11.517 2°46.092 250.9 14.3 247 10.1
2004-08-18 08:28:09 51°11.509 2°46.063 251.1 14.3 247 10.1
2004-08-18 08:28:12 51°11.504 2°46.046 251 14.3 247 10.1
2004-08-18 08:28:19 51°11.493 2°46.005 250.6 14.3 247 10.1
2004-08-18 08:28:24 51°11.485 2°45.977 249.7 14.3 245 10
2004-08-18 08:28:28 51°11.478 2°45.953 249.4 14.3 245 10
2004-08-18 08:28:35 51°11.467 2°45.913 249.2 14.3 245 10
2004-08-18 08:28:39 51°11.46 2°45.89 249 14.3 246 10
2004-08-18 08:28:45 51°11.45 2°45.856 249.2 14.3 246 9.9
2004-08-18 08:28:48 51°11.445 2°45.838 249.3 14.3 246 10
2004-08-18 08:28:52 51°11.439 2°45.815 249.6 14.3 246 10
2004-08-18 08:28:59 51°11.427 2°45.775 249.6 14.3 246 10
2004-08-18 08:29:04 51°11.419 2°45.746 249.5 14.3 246 10
2004-08-18 08:29:09 51°11.411 2°45.717 249.4 14.3 246 10
2004-08-18 08:29:14 51°11.403 2°45.688 249.3 14.4 245 10
2004-08-18 08:29:18 51°11.396 2°45.665 249.3 14.4 245 10
2004-08-18 08:29:23 51°11.388 2°45.636 249.2 14.3 245 10
2004-08-18 08:29:29 51°11.378 2°45.602 248.9 14.3 245 10
2004-08-18 08:29:33 51°11.371 2°45.579 248.6 14.3 245 9.9
2004-08-18 08:29:39 51°11.361 2°45.545 248.4 14.3 245 9.9
2004-08-18 08:29:44 51°11.353 2°45.516 248.5 14.3 245 9.9
2004-08-18 08:29:49 51°11.344 2°45.487 248.9 14.3 245 9.9
2004-08-18 08:29:54 51°11.337 2°45.458 249.2 14.3 246 9.9
2004-08-18 08:29:59 51°11.328 2°45.43 249.8 14.3 246 9.9
2004-08-18 08:30:04 51°11.321 2°45.401 249.9 14.3 246 9.9
2004-08-18 08:30:08 51°11.314 2°45.378 250 14.3 247 9.9
2004-08-18 08:30:13 51°11.306 2°45.349 250.2 14.3 246 9.9
2004-08-18 08:30:19 51°11.297 2°45.314 250 14.3 246 9.9
2004-08-18 08:30:24 51°11.289 2°45.285 249.7 14.3 246 9.9
2004-08-18 08:30:28 51°11.282 2°45.263 249.4 14.2 245 9.8
2004-08-18 08:30:34 51°11.272 2°45.228 248.9 14.2 245 9.8
2004-08-18 08:30:39 51°11.264 2°45.2 248.6 14.3 246 9.8
2004-08-18 08:30:44 51°11.256 2°45.171 248.6 14.3 246 9.8
2004-08-18 08:30:47 51°11.251 2°45.154 248.9 14.3 245 9.8
2004-08-18 08:30:55 51°11.238 2°45.108 248.9 14.2 246 9.8
2004-08-18 08:30:59 51°11.231 2°45.085 249.4 14.3 247 9.8
2004-08-18 08:31:04 51°11.224 2°45.056 250.2 14.3 247 9.8
2004-08-18 08:31:09 51°11.216 2°45.027 250.4 14.3 247 9.8
2004-08-18 08:31:13 51°11.21 2°45.003 250.5 14.3 247 9.7
2004-08-18 08:31:19 51°11.2 2°44.969 250.6 14.3 247 9.7
2004-08-18 08:31:24 51°11.193 2°44.94 250.4 14.3 247 9.7
2004-08-18 08:31:28 51°11.186 2°44.916 250.1 14.3 246 9.7
2004-08-18 08:31:33 51°11.178 2°44.888 249.6 14.3 246 9.7
2004-08-18 08:31:39 51°11.168 2°44.853 249.1 14.3 245 9.7
2004-08-18 08:31:44 51°11.16 2°44.825 248.4 14.4 245 9.7
2004-08-18 08:31:48 51°11.153 2°44.802 248.2 14.3 245 9.7
2004-08-18 08:31:55 51°11.141 2°44.762 248.2 14.2 245 9.7
2004-08-18 08:31:59 51°11.135 2°44.739 248.1 14.3 245 9.6
2004-08-18 08:32:04 51°11.126 2°44.711 248.4 14.3 246 9.7
2004-08-18 08:32:09 51°11.118 2°44.682 249.1 14.3 246 9.6
2004-08-18 08:32:13 51°11.112 2°44.658 249.6 14.3 247 9.6
2004-08-18 08:32:19 51°11.103 2°44.624 250.2 14.2 247 9.6
2004-08-18 08:32:24 51°11.095 2°44.595 250.5 14.3 247 9.6
2004-08-18 08:32:27 51°11.091 2°44.577 250.8 14.3 248 9.6
2004-08-18 08:32:33 51°11.081 2°44.542 251 14.3 247 9.6
2004-08-18 08:32:39 51°11.072 2°44.507 250.6 14.3 246 9.6
2004-08-18 08:32:44 51°11.064 2°44.478 249.6 14.3 245 9.5
2004-08-18 08:32:49 51°11.055 2°44.45 248.7 14.3 245 9.6
2004-08-18 08:32:54 51°11.047 2°44.421 248.4 14.4 245 9.5
2004-08-18 08:32:59 51°11.038 2°44.392 248.2 14.3 245 9.6
2004-08-18 08:33:03 51°11.032 2°44.369 248.1 14.3 245 9.5
2004-08-18 08:33:09 51°11.022 2°44.335 248.1 14.3 245 9.5
2004-08-18 08:33:14 51°11.013 2°44.306 248.2 14.4 245 9.5
2004-08-18 08:33:19 51°11.005 2°44.277 248.9 14.4 246 9.4
2004-08-18 08:33:23 51°10.999 2°44.254 249.5 14.3 247 9.4
2004-08-18 08:33:28 51°10.991 2°44.225 250 14.3 247 9.4
2004-08-18 08:33:33 51°10.983 2°44.196 250.5 14.3 247 9.3
2004-08-18 08:33:39 51°10.974 2°44.16 250.8 14.3 247 9.3
2004-08-18 08:33:44 51°10.967 2°44.131 251.1 14.4 248 9.4
2004-08-18 08:33:49 51°10.959 2°44.102 251.3 14.4 247 9.3
2004-08-18 08:33:53 51°10.953 2°44.078 251.1 14.3 248 9.4
2004-08-18 08:33:59 51°10.944 2°44.043 250.5 14.3 247 9.3
2004-08-18 08:34:04 51°10.936 2°44.015 250 14.3 246 9.3
2004-08-18 08:34:09 51°10.927 2°43.986 249.6 14.3 246 9.3
2004-08-18 08:34:14 51°10.919 2°43.957 248.8 14.3 245 9.3
2004-08-18 08:34:19 51°10.911 2°43.928 248.5 14.4 246 9.3
2004-08-18 08:34:24 51°10.902 2°43.899 248.3 14.3 245 9.2
2004-08-18 08:34:29 51°10.894 2°43.871 248.2 14.3 246 9.3
2004-08-18 08:34:32 51°10.889 2°43.854 248.4 14.3 245 9.2
2004-08-18 08:34:39 51°10.878 2°43.813 248.4 14.4 246 9.2
2004-08-18 08:34:44 51°10.87 2°43.784 248.9 14.4 246 9.2
2004-08-18 08:34:49 51°10.862 2°43.755 248.9 14.3 246 9.2
2004-08-18 08:34:55 51°10.852 2°43.721 249.3 14.3 246 9.2
2004-08-18 08:34:59 51°10.846 2°43.697 249.5 14.3 247 9.2
2004-08-18 08:35:04 51°10.838 2°43.668 250.1 14.3 247 9.2
2004-08-18 08:35:09 51°10.831 2°43.639 250.7 14.4 248 9.1
2004-08-18 08:35:13 51°10.825 2°43.615 251.2 14.3 248 9.2
2004-08-18 08:35:19 51°10.816 2°43.58 251.6 14.3 248 9.2
2004-08-18 08:35:24 51°10.808 2°43.551 251.5 14.3 248 9.2
2004-08-18 08:35:28 51°10.802 2°43.527 251.1 14.3 248 9.2
2004-08-18 08:35:33 51°10.794 2°43.498 250.4 14.3 246 9.2
2004-08-18 08:35:39 51°10.785 2°43.464 249.2 14.4 246 9.1
2004-08-18 08:35:44 51°10.776 2°43.435 248.7 14.3 245 9.1
2004-08-18 08:35:49 51°10.768 2°43.407 247.9 14.3 245 9.1
2004-08-18 08:35:51 51°10.764 2°43.395 247.5 14.4 245 9
2004-08-18 08:35:59 51°10.751 2°43.349 247.5 14.4 245 9
2004-08-18 08:36:03 51°10.744 2°43.326 248 14.4 246 9
2004-08-18 08:36:09 51°10.735 2°43.291 248.8 14.3 246 9
2004-08-18 08:36:14 51°10.727 2°43.262 249.6 14.4 247 9
2004-08-18 08:36:19 51°10.719 2°43.233 250.4 14.3 249 9
2004-08-18 08:36:23 51°10.713 2°43.209 251.1 14.3 248 9
2004-08-18 08:36:28 51°10.706 2°43.18 251.2 14.3 248 9
2004-08-18 08:36:33 51°10.698 2°43.151 251.2 14.4 247 8.9
2004-08-18 08:36:39 51°10.689 2°43.116 250.4 14.4 247 8.9
2004-08-18 08:36:44 51°10.681 2°43.087 249.8 14.4 246 8.9
2004-08-18 08:36:49 51°10.673 2°43.058 248.8 14.3 246 8.9
2004-08-18 08:36:53 51°10.666 2°43.035 248.1 14.3 245 8.9
2004-08-18 08:36:59 51°10.655 2°43.001 247 14.3 244 8.8
2004-08-18 08:37:04 51°10.647 2°42.973 246.7 14.4 244 8.8
2004-08-18 08:37:09 51°10.638 2°42.944 246.5 14.4 244 8.8
2004-08-18 08:37:14 51°10.629 2°42.916 246.6 14.3 244 8.8
2004-08-18 08:37:19 51°10.62 2°42.888 246.9 14.3 245 8.7
2004-08-18 08:37:24 51°10.612 2°42.859 247.2 14.3 245 8.7
2004-08-18 08:37:29 51°10.604 2°42.83 248.4 14.3 247 8.7
2004-08-18 08:37:32 51°10.6 2°42.812 249.7 14.3 248 8.7
2004-08-18 08:37:39 51°10.59 2°42.771 251 14.3 249 8.7
2004-08-18 08:37:44 51°10.583 2°42.742 251.8 14.3 249 8.7
2004-08-18 08:37:49 51°10.576 2°42.713 252.3 14.3 249 8.8
2004-08-18 08:37:54 51°10.569 2°42.683 252.5 14.3 250 8.7
2004-08-18 08:37:59 51°10.562 2°42.654 252.9 14.3 250 8.7
2004-08-18 08:38:04 51°10.555 2°42.624 253 14.3 249 8.7
2004-08-18 08:38:09 51°10.548 2°42.594 252.7 14.3 249 8.7
2004-08-18 08:38:13 51°10.542 2°42.571 252.5 14.2 249 8.7
2004-08-18 08:38:19 51°10.533 2°42.536 251.6 14.2 248 8.7
2004-08-18 08:38:24 51°10.526 2°42.507 250.9 14.3 247 8.7
2004-08-18 08:38:30 51°10.516 2°42.473 249.9 14.3 246 8.7
2004-08-18 08:38:35 51°10.508 2°42.444 248.7 14.3 245 8.7
2004-08-18 08:38:39 51°10.501 2°42.421 248 14.3 244 8.6
2004-08-18 08:38:45 51°10.49 2°42.387 246.6 14.3 244 8.6
2004-08-18 08:38:49 51°10.483 2°42.365 246.2 14.2 243 8.7
2004-08-18 08:38:55 51°10.473 2°42.331 245.9 14.2 244 8.6
2004-08-18 08:38:59 51°10.466 2°42.308 246.2 14.3 245 8.6
2004-08-18 08:39:04 51°10.458 2°42.28 247.3 14.3 245 8.6
2004-08-18 08:39:09 51°10.45 2°42.251 248.4 14.3 247 8.6
2004-08-18 08:39:13 51°10.444 2°42.228 249.9 14.3 247 8.6
2004-08-18 08:39:19 51°10.435 2°42.192 251.1 14.2 249 8.6
2004-08-18 08:39:24 51°10.428 2°42.163 251.8 14.2 249 8.6
2004-08-18 08:39:29 51°10.422 2°42.134 252.5 14.2 250 8.7
2004-08-18 08:39:34 51°10.415 2°42.104 252.6 14.3 250 8.7
2004-08-18 08:39:39 51°10.408 2°42.075 252.7 14.3 249 8.7
2004-08-18 08:39:44 51°10.401 2°42.045 252.7 14.3 249 8.7
2004-08-18 08:39:49 51°10.393 2°42.016 252.1 14.3 248 8.7
2004-08-18 08:39:54 51°10.386 2°41.986 251.4 14.3 248 8.7
2004-08-18 08:39:59 51°10.378 2°41.958 250.6 14.3 247 8.7
2004-08-18 08:40:04 51°10.37 2°41.929 249.3 14.3 245 8.7
2004-08-18 08:40:09 51°10.361 2°41.9 247.8 14.3 245 8.7
2004-08-18 08:40:15 51°10.351 2°41.867 246.8 14.3 244 8.7
2004-08-18 08:40:19 51°10.344 2°41.844 246.1 14.2 244 8.7
2004-08-18 08:40:24 51°10.335 2°41.816 245.7 14.3 243 8.7
2004-08-18 08:40:29 51°10.326 2°41.787 245.7 14.3 244 8.7
2004-08-18 08:40:33 51°10.319 2°41.765 245.9 14.3 244 8.6
2004-08-18 08:40:39 51°10.309 2°41.731 246.5 14.3 246 8.6
2004-08-18 08:40:44 51°10.302 2°41.702 248.1 14.3 247 8.7
2004-08-18 08:40:49 51°10.294 2°41.672 249.6 14.3 248 8.7
2004-08-18 08:40:53 51°10.288 2°41.649 250.7 14.3 249 8.7
2004-08-18 08:40:59 51°10.28 2°41.613 251.6 14.3 249 8.7
2004-08-18 08:41:04 51°10.273 2°41.584 252.3 14.3 250 8.7
2004-08-18 08:41:09 51°10.266 2°41.554 252.5 14.3 250 8.7
2004-08-18 08:41:14 51°10.26 2°41.524 252.6 14.3 250 8.7
2004-08-18 08:41:19 51°10.252 2°41.495 251.9 14.4 249 8.7
2004-08-18 08:41:24 51°10.245 2°41.466 251.3 14.3 248 8.7
2004-08-18 08:41:29 51°10.237 2°41.436 250.4 14.3 247 8.7
2004-08-18 08:41:33 51°10.231 2°41.413 249.4 14.3 246 8.7
2004-08-18 08:41:39 51°10.221 2°41.379 248.3 14.3 245 8.7
2004-08-18 08:41:44 51°10.212 2°41.351 247.2 14.3 244 8.7
2004-08-18 08:41:47 51°10.207 2°41.333 246.6 14.4 244 8.7
2004-08-18 08:41:55 51°10.193 2°41.288 246.4 14.3 244 8.7
2004-08-18 08:41:59 51°10.186 2°41.265 245.9 14.3 244 8.8
2004-08-18 08:42:04 51°10.177 2°41.237 245.5 14.4 244 8.8
2004-08-18 08:42:08 51°10.17 2°41.214 245.8 14.3 244 8.7
2004-08-18 08:42:13 51°10.162 2°41.185 246.7 14.3 246 8.6
2004-08-18 08:42:19 51°10.153 2°41.15 248 14.3 247 8.8
2004-08-18 08:42:24 51°10.145 2°41.121 249.1 14.3 248 8.7
2004-08-18 08:42:28 51°10.139 2°41.097 250.4 14.3 249 8.7
2004-08-18 08:42:33 51°10.133 2°41.068 251.5 14.3 249 8.8
2004-08-18 08:42:37 51°10.127 2°41.044 252.2 14.3 250 8.8
2004-08-18 08:42:44 51°10.118 2°41.003 252.6 14.3 250 8.8
2004-08-18 08:42:48 51°10.112 2°40.979 252.9 14.3 251 8.9
2004-08-18 08:42:52 51°10.107 2°40.955 253 14.3 250 8.8
2004-08-18 08:42:59 51°10.097 2°40.914 252.6 14.3 249 8.9
2004-08-18 08:43:05 51°10.089 2°40.878 251.6 14.3 248 8.8
2004-08-18 08:43:09 51°10.083 2°40.855 250.6 14.3 249 8.9
2004-08-18 08:43:14 51°10.075 2°40.826 249.8 14.3 247 8.8
2004-08-18 08:43:19 51°10.068 2°40.796 250.6 14.3 250 8.8
2004-08-18 08:43:24 51°10.062 2°40.766 252.5 14.3 252 8.9
2004-08-18 08:43:29 51°10.057 2°40.736 255 14.3 255 8.9
2004-08-18 08:43:35 51°10.053 2°40.699 259.5 14.2 259 8.9
2004-08-18 08:43:39 51°10.051 2°40.674 263.2 14.2 264 9
2004-08-18 08:43:44 51°10.05 2°40.643 267.5 14.1 266 9
2004-08-18 08:43:49 51°10.049 2°40.612 270 14.1 267 9.1
2004-08-18 08:43:54 51°10.049 2°40.58 272 14.1 268 9.1
2004-08-18 08:43:59 51°10.049 2°40.549 273.6 14.2 269 9.2
2004-08-18 08:44:04 51°10.048 2°40.518 273.6 14.3 268 9.3
2004-08-18 08:44:09 51°10.047 2°40.486 271.4 14.3 266 9.3
2004-08-18 08:44:15 51°10.044 2°40.449 269.7 14.3 264 9.4
2004-08-18 08:44:19 51°10.041 2°40.424 267.3 14.3 261 9.4
2004-08-18 08:44:24 51°10.038 2°40.392 264.9 14.3 261 9.5
2004-08-18 08:44:29 51°10.035 2°40.361 263.8 14.3 260 9.5
2004-08-18 08:44:32 51°10.032 2°40.343 262.8 14.3 259 9.5
2004-08-18 08:44:39 51°10.027 2°40.299 262.4 14.3 259 9.5
2004-08-18 08:44:44 51°10.022 2°40.269 260.6 14.3 256 9.5
2004-08-18 08:44:49 51°10.017 2°40.238 258.7 14.3 255 9.5
2004-08-18 08:44:53 51°10.012 2°40.214 256.9 14.4 253 9.6
2004-08-18 08:44:59 51°10.005 2°40.178 255.6 14.3 252 9.6
2004-08-18 08:45:03 51°10 2°40.154 254.6 14.4 251 9.6
2004-08-18 08:45:08 51°9.994 2°40.124 253.6 14.4 251 9.6
2004-08-18 08:45:14 51°9.985 2°40.088 253.2 14.3 250 9.6
2004-08-18 08:45:19 51°9.978 2°40.059 251.4 14.4 248 9.6
2004-08-18 08:45:23 51°9.972 2°40.035 249.6 14.3 247 9.6
2004-08-18 08:45:29 51°9.962 2°40.001 249 14.3 246 9.6
2004-08-18 08:45:34 51°9.954 2°39.972 248 14.3 246 9.6
2004-08-18 08:45:39 51°9.945 2°39.943 247 14.3 245 9.6
2004-08-18 08:45:44 51°9.937 2°39.915 246.6 14.3 245 9.6
2004-08-18 08:45:48 51°9.93 2°39.892 246.3 14.3 245 9.6
2004-08-18 08:45:53 51°9.922 2°39.863 246.1 14.3 245 9.6
2004-08-18 08:45:59 51°9.912 2°39.829 246.3 14.3 245 9.6
2004-08-18 08:46:04 51°9.904 2°39.8 246.9 14.3 246 9.6
2004-08-18 08:46:09 51°9.896 2°39.771 247.5 14.3 246 9.6
2004-08-18 08:46:13 51°9.889 2°39.748 248 14.3 247 9.6
2004-08-18 08:46:19 51°9.88 2°39.713 248.2 14.3 247 9.6
2004-08-18 08:46:24 51°9.872 2°39.684 248.2 14.4 247 9.6
2004-08-18 08:46:27 51°9.867 2°39.666 248.2 14.3 247 9.6
2004-08-18 08:46:35 51°9.855 2°39.62 248.2 14.3 247 9.6
2004-08-18 08:46:39 51°9.848 2°39.597 248 14.4 246 9.5
2004-08-18 08:46:44 51°9.84 2°39.568 247.8 14.3 246 9.5
2004-08-18 08:46:48 51°9.833 2°39.545 247.4 14.4 245 9.6
2004-08-18 08:46:52 51°9.827 2°39.522 246.9 14.4 245 9.5
2004-08-18 08:46:59 51°9.815 2°39.482 246.6 14.4 245 9.5
2004-08-18 08:47:05 51°9.805 2°39.447 246.5 14.4 245 9.6
2004-08-18 08:47:09 51°9.798 2°39.424 246.7 14.4 246 9.6
2004-08-18 08:47:13 51°9.792 2°39.401 246.9 14.4 246 9.6
2004-08-18 08:47:19 51°9.783 2°39.366 247.5 14.3 247 9.6
2004-08-18 08:47:24 51°9.775 2°39.337 248.2 14.3 247 9.6
2004-08-18 08:47:29 51°9.767 2°39.308 248.4 14.3 247 9.6
2004-08-18 08:47:34 51°9.759 2°39.279 248.6 14.3 247 9.7
2004-08-18 08:47:39 51°9.751 2°39.249 248.5 14.3 247 9.7
2004-08-18 08:47:44 51°9.744 2°39.221 248.1 14.3 246 9.6
2004-08-18 08:47:47 51°9.739 2°39.203 247.7 14.3 246 9.7
2004-08-18 08:47:54 51°9.727 2°39.163 247.3 14.3 246 9.7
2004-08-18 08:47:59 51°9.719 2°39.135 246.8 14.3 245 9.7
2004-08-18 08:48:04 51°9.711 2°39.106 246.6 14.4 246 9.7
2004-08-18 08:48:09 51°9.703 2°39.077 247 14.3 246 9.8
2004-08-18 08:48:11 51°9.699 2°39.065 247.5 14.3 247 9.7
2004-08-18 08:48:19 51°9.687 2°39.019 248.2 14.3 247 9.7
2004-08-18 08:48:24 51°9.679 2°38.99 248.7 14.4 247 9.8
2004-08-18 08:48:29 51°9.672 2°38.96 248.9 14.3 248 9.8
2004-08-18 08:48:34 51°9.664 2°38.931 249.3 14.4 248 9.8
2004-08-18 08:48:39 51°9.657 2°38.902 249.5 14.3 248 9.9
2004-08-18 08:48:44 51°9.65 2°38.873 249.6 14.4 248 9.9
2004-08-18 08:48:49 51°9.642 2°38.843 249.2 14.4 247 9.9
2004-08-18 08:48:54 51°9.634 2°38.814 248.6 14.4 247 9.9
2004-08-18 08:48:59 51°9.626 2°38.785 247.6 14.4 246 9.9
2004-08-18 08:49:04 51°9.618 2°38.756 247.1 14.4 246 9.8
2004-08-18 08:49:09 51°9.609 2°38.727 247 14.4 245 9.8
2004-08-18 08:49:14 51°9.601 2°38.699 247 14.4 246 9.9
2004-08-18 08:49:19 51°9.593 2°38.67 247.4 14.4 246 9.9
2004-08-18 08:49:24 51°9.585 2°38.641 247.4 14.4 246 9.8
2004-08-18 08:49:29 51°9.577 2°38.612 247.5 14.4 246 9.9
2004-08-18 08:49:33 51°9.57 2°38.589 247.6 14.4 247 9.9
2004-08-18 08:49:37 51°9.564 2°38.565 248.2 14.4 247 9.9
2004-08-18 08:49:44 51°9.553 2°38.524 248.2 14.4 247 9.9
2004-08-18 08:49:49 51°9.546 2°38.495 248.4 14.4 247 9.9
2004-08-18 08:49:53 51°9.54 2°38.472 248.9 14.3 248 10
2004-08-18 08:50:00 51°9.529 2°38.43 249 14.4 248 10
2004-08-18 08:50:05 51°9.522 2°38.401 249.6 14.4 249 10
2004-08-18 08:50:08 51°9.518 2°38.383 249.9 14.4 248 10
2004-08-18 08:50:13 51°9.51 2°38.353 249.8 14.4 249 10
2004-08-18 08:50:19 51°9.501 2°38.318 249.6 14.4 247 9.9
2004-08-18 08:50:24 51°9.493 2°38.289 248.8 14.4 247 10
2004-08-18 08:50:29 51°9.485 2°38.26 248.2 14.4 247 9.9
2004-08-18 08:50:35 51°9.475 2°38.225 247.9 14.4 246 9.9
2004-08-18 08:50:39 51°9.469 2°38.202 247.5 14.3 246 9.9
2004-08-18 08:50:44 51°9.46 2°38.173 246.9 14.4 245 9.9
2004-08-18 08:50:48 51°9.454 2°38.15 246.8 14.4 246 9.9
2004-08-18 08:50:53 51°9.446 2°38.121 246.9 14.4 246 9.9
2004-08-18 08:50:59 51°9.436 2°38.086 247.2 14.3 246 9.9
2004-08-18 08:51:04 51°9.428 2°38.057 248 14.3 247 9.9
2004-08-18 08:51:09 51°9.42 2°38.028 248.2 14.4 247 9.9
2004-08-18 08:51:14 51°9.413 2°37.999 248.2 14.4 247 10
2004-08-18 08:51:19 51°9.405 2°37.97 248.2 14.3 247 10
2004-08-18 08:51:24 51°9.397 2°37.941 247.9 14.3 247 10
2004-08-18 08:51:29 51°9.389 2°37.912 247.8 14.3 246 10
2004-08-18 08:51:35 51°9.38 2°37.877 247.6 14.3 246 10
2004-08-18 08:51:39 51°9.373 2°37.854 247.4 14.3 246 10
2004-08-18 08:51:44 51°9.365 2°37.826 247.4 14.4 246 10
2004-08-18 08:51:49 51°9.357 2°37.796 247.5 14.3 247 10
2004-08-18 08:51:53 51°9.351 2°37.773 248.1 14.3 247 9.9
2004-08-18 08:51:59 51°9.342 2°37.738 248.3 14.3 248 9.9
2004-08-18 08:52:04 51°9.334 2°37.709 248.7 14.3 248 9.9
2004-08-18 08:52:08 51°9.329 2°37.685 249.5 14.3 249 10
2004-08-18 08:52:14 51°9.32 2°37.65 249.9 14.3 250 9.9
2004-08-18 08:52:20 51°9.312 2°37.614 251.1 14.4 251 10
2004-08-18 08:52:24 51°9.308 2°37.59 252.4 14.4 253 10
2004-08-18 08:52:28 51°9.303 2°37.565 254.1 14.4 253 10
2004-08-18 08:52:34 51°9.297 2°37.529 255.8 14 256 10
2004-08-18 08:52:39 51°9.293 2°37.5 257.6 13.5 257 10
2004-08-18 08:52:44 51°9.29 2°37.472 259.6 12.9 259 10.1
2004-08-18 08:52:48 51°9.288 2°37.45 262.3 12.6 261 10.1
2004-08-18 08:52:53 51°9.286 2°37.424 265.4 12.2 263 10.3
2004-08-18 08:52:59 51°9.283 2°37.394 266.2 11.4 260 10.4
2004-08-18 08:53:04 51°9.28 2°37.37 262.6 11.1 257 10.5
2004-08-18 08:53:08 51°9.276 2°37.351 259.1 10.8 254 10.5
2004-08-18 08:53:15 51°9.269 2°37.322 254 10.3 248 10.5
2004-08-18 08:53:19 51°9.264 2°37.306 248.9 9.9 244 10.5
2004-08-18 08:53:24 51°9.257 2°37.288 244 9.6 239 10.5
2004-08-18 08:53:29 51°9.25 2°37.271 238.7 9.2 235 10.4
2004-08-18 08:53:35 51°9.24 2°37.256 230.9 8.5 224 10.4
2004-08-18 08:53:39 51°9.232 2°37.248 221.9 8 216 10.3
2004-08-18 08:53:44 51°9.223 2°37.239 213.3 7.7 210 10.2
2004-08-18 08:53:48 51°9.216 2°37.235 202.4 7.2 203 10.2
2004-08-18 08:53:54 51°9.205 2°37.23 195.5 6.7 199 10.1
2004-08-18 08:53:59 51°9.198 2°37.227 188.8 5.9 193 10.1
2004-08-18 08:54:04 51°9.19 2°37.225 183.9 5.4 188 10
2004-08-18 08:54:08 51°9.185 2°37.224 179.2 5.1 185 10
2004-08-18 08:54:14 51°9.177 2°37.224 174.7 4.8 183 9.9
2004-08-18 08:54:19 51°9.171 2°37.224 170 4.3 177 9.9
2004-08-18 08:54:25 51°9.164 2°37.226 165.4 4.1 171 9.8
2004-08-18 08:54:29 51°9.159 2°37.228 160.4 4.2 166 9.8
2004-08-18 08:54:35 51°9.153 2°37.233 153.6 4.3 156 9.7
2004-08-18 08:54:39 51°9.149 2°37.237 144.8 4.3 145 9.7
2004-08-18 08:54:44 51°9.145 2°37.244 135.7 4.2 137 9.5
2004-08-18 08:54:49 51°9.141 2°37.251 126.7 4.2 129 9.5
2004-08-18 08:54:52 51°9.139 2°37.255 117.8 4 123 9.5
2004-08-18 08:54:59 51°9.137 2°37.266 109.6 3.7 111 9.4
2004-08-18 08:55:04 51°9.136 2°37.274 102.5 3.5 105 9.5
2004-08-18 08:55:09 51°9.135 2°37.28 96 3.2 100 9.6
2004-08-18 08:55:15 51°9.135 2°37.288 91.9 3.1 98 9.5
2004-08-18 08:55:19 51°9.135 2°37.292 89.6 2.6 94 9.5
2004-08-18 08:55:24 51°9.135 2°37.297 87.6 2.2 92 9.5
2004-08-18 08:55:28 51°9.135 2°37.3 84.8 1.7 91 9.5
2004-08-18 08:55:34 51°9.135 2°37.302 80.7 0.9 93 9.5
2004-08-18 08:55:39 51°9.135 2°37.303 76.2 0.2 124 9.5
2004-08-18 08:55:44 51°9.134 2°37.303 72.7 0.1 197 9.5
2004-08-18 08:55:48 51°9.134 2°37.302 70.9 0.1 220 9.5
2004-08-18 08:55:53 51°9.134 2°37.302 69.4 0.2 195 9.5
2004-08-18 08:55:58 51°9.134 2°37.302 68.3 0.1 231 9.5
2004-08-18 08:56:04 51°9.134 2°37.302 67.4 0.1 271 9.5
2004-08-18 08:56:08 51°9.134 2°37.301 66.5 0.1 302 9.5
2004-08-18 08:56:13 51°9.134 2°37.301 65.8 0.1 302 9.5
2004-08-18 08:56:19 51°9.134 2°37.301 65.4 0.2 315 9.5
2004-08-18 08:56:24 51°9.134 2°37.301 65.3 0.2 324 9.5
2004-08-18 08:56:29 51°9.134 2°37.301 65.6 0.1 330 9.5
2004-08-18 08:56:35 51°9.135 2°37.301 66.3 0.1 338 9.5
2004-08-18 08:56:39 51°9.135 2°37.3 67.1 0.1 341 9.5
2004-08-18 08:56:44 51°9.135 2°37.3 68.5 0.2 343 9.5
2004-08-18 08:56:48 51°9.135 2°37.3 70.1 0.1 4 9.5
2004-08-18 08:56:53 51°9.135 2°37.3 71.8 0.1 350 9.5
2004-08-18 08:56:59 51°9.135 2°37.3 73.7 0.1 355 9.5
2004-08-18 08:57:05 51°9.136 2°37.3 75.6 0.1 6 9.5
2004-08-18 08:57:09 51°9.136 2°37.3 77.4 0.1 357 9.5
2004-08-18 08:57:14 51°9.136 2°37.3 79.2 0.1 333 9.5
2004-08-18 08:57:19 51°9.136 2°37.3 80.9   276 9.5
2004-08-18 08:57:25 51°9.136 2°37.3 82.4 0.1 285 9.5
2004-08-18 08:57:28 51°9.136 2°37.299 83.8 0.1 288 9.5
2004-08-18 08:57:33 51°9.136 2°37.299 85.1 0.1 285 9.5
2004-08-18 08:57:39 51°9.136 2°37.299 86.3 0.2 281 9.5
2004-08-18 08:57:44 51°9.136 2°37.298 87 0.2 274 9.4
2004-08-18 08:57:49 51°9.136 2°37.298 87.8 0.2 254 9.5
2004-08-18 08:57:54 51°9.136 2°37.297 88.5 0.3 267 9.5
2004-08-18 08:57:57 51°9.136 2°37.297 89.1 0.3 287 9.5
2004-08-18 08:58:05 51°9.136 2°37.295 89.8 0.3 270 9.5
2004-08-18 08:58:08 51°9.136 2°37.295 90.6 0.4 284 9.5
2004-08-18 08:58:13 51°9.136 2°37.294 91.3 0.4 271 9.6
2004-08-18 08:58:19 51°9.136 2°37.293 92 0.4 275 9.5
2004-08-18 08:58:24 51°9.136 2°37.292 92.9 0.4 275 9.5
2004-08-18 08:58:29 51°9.136 2°37.291 94.1 0.5 267 9.5
2004-08-18 08:58:33 51°9.136 2°37.29 95.1 0.5 266 9.5
2004-08-18 08:58:39 51°9.136 2°37.289 96.2 0.5 270 9.5
2004-08-18 08:58:44 51°9.136 2°37.287 97.2 0.5 270 9.5
2004-08-18 08:58:49 51°9.136 2°37.286 97.9 0.6 271 9.5
2004-08-18 08:58:55 51°9.136 2°37.284 98.8 0.6 268 9.5
2004-08-18 08:58:59 51°9.136 2°37.283 99.3 0.6 269 9.5
2004-08-18 08:59:04 51°9.136 2°37.282 100.2 0.7 279 9.5
2004-08-18 08:59:09 51°9.136 2°37.28 100.8 0.7 274 9.5
2004-08-18 08:59:13 51°9.136 2°37.279 101.5 0.7 278 9.5
2004-08-18 08:59:19 51°9.136 2°37.277 102.2 0.7 278 9.6
2004-08-18 08:59:23 51°9.136 2°37.276 102.4 0.7 277 9.5
2004-08-18 08:59:29 51°9.137 2°37.274 103 0.7 275 9.5
2004-08-18 08:59:35 51°9.137 2°37.273 103 0.6 276 9.6
2004-08-18 08:59:39 51°9.137 2°37.272 103.2 0.6 279 9.6
2004-08-18 08:59:45 51°9.137 2°37.27 103.2 0.5 271 9.5
2004-08-18 08:59:49 51°9.137 2°37.269 103.3 0.5 279 9.5
2004-08-18 08:59:55 51°9.137 2°37.268 103.3 0.5 268 9.6
2004-08-18 08:59:59 51°9.137 2°37.267 103.2 0.5 264 9.5
2004-08-18 09:00:04 51°9.137 2°37.266 103.4 0.4 270 9.6
2004-08-18 09:00:09 51°9.137 2°37.266 103.4 0.4 270 9.6
2004-08-18 09:00:15 51°9.137 2°37.265 103.4 0.4 258 9.5
2004-08-18 09:00:19 51°9.137 2°37.264 103.4 0.3 259 9.5
2004-08-18 09:00:24 51°9.136 2°37.263 103.4 0.3 247 9.6
2004-08-18 09:00:29 51°9.136 2°37.263 103.4 0.3 257 9.5
2004-08-18 09:00:33 51°9.136 2°37.262 103.6 0.3 238 9.6
2004-08-18 09:00:39 51°9.136 2°37.262 103.7 0.2 246 9.6
2004-08-18 09:00:44 51°9.136 2°37.261 103.8 0.2 225 9.6
2004-08-18 09:00:49 51°9.135 2°37.261 103.8 0.2 224 9.6
2004-08-18 09:00:55 51°9.135 2°37.26 104 0.2 215 9.6
2004-08-18 09:00:59 51°9.135 2°37.26 104 0.2 215 9.6
2004-08-18 09:01:04 51°9.135 2°37.26 104 0.1 204 9.6
2004-08-18 09:01:10 51°9.135 2°37.26 103.9 0.2 200 9.6
2004-08-18 09:01:14 51°9.135 2°37.26 103.7 0.1 194 9.6
2004-08-18 09:01:19 51°9.135 2°37.26 103.4 0.2 193 9.6
2004-08-18 09:01:24 51°9.135 2°37.26 102.9 0.1 184 9.6
2004-08-18 09:01:27 51°9.134 2°37.26 102.4 0.2 185 9.6
2004-08-18 09:01:35 51°9.134 2°37.26 101.9 0.1 173 9.6
2004-08-18 09:01:39 51°9.133 2°37.26 101.2 0.1 171 9.6
2004-08-18 09:01:44 51°9.133 2°37.26 100.7 0.1 165 9.6
2004-08-18 09:01:49 51°9.133 2°37.26 100.1 0.2 169 9.6
2004-08-18 09:01:54 51°9.133 2°37.26 99.5 0.1 139 9.6
2004-08-18 09:01:59 51°9.133 2°37.26 99 0.1 138 9.6
2004-08-18 09:02:04 51°9.133 2°37.26 98.1 0.2 129 9.5
2004-08-18 09:02:09 51°9.133 2°37.261 97.9 0.2 128 9.5
2004-08-18 09:02:13 51°9.133 2°37.261 97.8 0.2 121 9.5
2004-08-18 09:02:20 51°9.132 2°37.262 97.9 0.3 130 9.6
2004-08-18 09:02:23 51°9.132 2°37.262 98.5 0.3 128 9.6
2004-08-18 09:02:29 51°9.132 2°37.263 99.2 0.3 127 9.5
2004-08-18 09:02:34 51°9.132 2°37.263 99.7 0.3 131 9.5
2004-08-18 09:02:39 51°9.132 2°37.264 100.3 0.3 124 9.5
2004-08-18 09:02:44 51°9.131 2°37.264 100.8 0.3 129 9.5
2004-08-18 09:02:49 51°9.131 2°37.265 101.4 0.3 122 9.5
2004-08-18 09:02:55 51°9.131 2°37.265 101.8 0.3 132 9.5
2004-08-18 09:02:59 51°9.131 2°37.266 102.3 0.3 133 9.6
2004-08-18 09:03:05 51°9.13 2°37.266 102.9 0.3 140 9.5
2004-08-18 09:03:09 51°9.13 2°37.267 103.3 0.3 135 9.5
2004-08-18 09:03:15 51°9.13 2°37.267 103.6 0.3 143 9.6
2004-08-18 09:03:19 51°9.13 2°37.267 104 0.2 128 9.5
2004-08-18 09:03:25 51°9.129 2°37.268 104.3 0.3 153 9.5
2004-08-18 09:03:29 51°9.129 2°37.268 104.6 0.2 139 9.5
2004-08-18 09:03:34 51°9.129 2°37.268 104.8 0.3 157 9.5
2004-08-18 09:03:39 51°9.129 2°37.268 105.2 0.2 155 9.5
2004-08-18 09:03:44 51°9.128 2°37.269 105.5 0.3 163 9.5
2004-08-18 09:03:49 51°9.128 2°37.269 105.9 0.2 153 9.5
2004-08-18 09:03:54 51°9.127 2°37.269 106.4 0.3 164 9.5
2004-08-18 09:03:59 51°9.127 2°37.269 107.1 0.3 166 9.5
2004-08-18 09:04:05 51°9.127 2°37.269 107.6 0.3 172 9.5
2004-08-18 09:04:09 51°9.126 2°37.269 108.1 0.3 174 9.5
2004-08-18 09:04:14 51°9.126 2°37.269 108.4 0.3 176 9.5
2004-08-18 09:04:20 51°9.126 2°37.269 108.6 0.2 178 9.5
2004-08-18 09:04:25 51°9.125 2°37.269 108.7 0.3 182 9.5
2004-08-18 09:04:27 51°9.125 2°37.269 108.9 0.3 182 9.5
2004-08-18 09:04:36 51°9.124 2°37.269 109.1 0.3 189 9.5
2004-08-18 09:04:41 51°9.124 2°37.269 109.3 0.2 187 9.5
2004-08-18 09:04:47 51°9.124 2°37.269 109.5 0.3 188 9.5
2004-08-18 09:04:52 51°9.123 2°37.269 109.7 0.2 189 9.5
2004-08-18 09:04:56 51°9.123 2°37.269 110 0.3 192 9.5
2004-08-18 09:05:01 51°9.123 2°37.269 110.3 0.2 187 9.5
2004-08-18 09:05:07 51°9.122 2°37.269 110.5 0.3 193 9.5
2004-08-18 09:05:15 51°9.122 2°37.268 111.3 0.3 194 9.5
2004-08-18 09:05:20 51°9.121 2°37.268 111.4 0.3 194 9.5
2004-08-18 09:05:25 51°9.121 2°37.268 111.7 0.3 193 9.5
2004-08-18 09:05:29 51°9.121 2°37.268 112.1 0.3 198 9.9
2004-08-18 09:05:33 51°9.12 2°37.268 112.1 0.3 197 10.3
2004-08-18 09:05:37 51°9.12 2°37.268 112.2 0.3 196 10.7
2004-08-18 09:05:41 51°9.12 2°37.268 112.5 0.3 195 11.3
2004-08-18 09:06:16 51°9.117 2°37.266 113.9 0.2 200 10.3
2004-08-18 09:06:22 51°9.116 2°37.266 114.1 0.4 204 10.1
2004-08-18 09:06:26 51°9.116 2°37.265 114.2 0.2 201 9.9
2004-08-18 09:06:31 51°9.115 2°37.265 114.4 0.4 203 9.8
2004-08-18 09:06:36 51°9.115 2°37.265 114.7 0.3 201 9.7
2004-08-18 09:06:41 51°9.115 2°37.265 114.9 0.4 203 9.6
2004-08-18 09:06:46 51°9.114 2°37.264 115 0.3 208 9.6
2004-08-18 09:06:52 51°9.114 2°37.264 115.3 0.3 201 9.5
2004-08-18 09:06:56 51°9.114 2°37.264 115.4 0.3 207 9.5
2004-08-18 09:07:01 51°9.113 2°37.263 115.7 0.4 206 9.5
2004-08-18 09:07:07 51°9.113 2°37.263 115.8 0.3 209 9.5
2004-08-18 09:07:11 51°9.112 2°37.263 116.1 0.3 208 9.5
2004-08-18 09:07:16 51°9.112 2°37.262 116.3 0.4 206 9.4
2004-08-18 09:07:20 51°9.111 2°37.262 116.6 0.4 206 9.4
2004-08-18 09:07:25 51°9.111 2°37.262 116.8 0.4 204 9.4
2004-08-18 09:07:29 51°9.11 2°37.261 117.1 0.3 205 9.5
2004-08-18 09:07:36 51°9.11 2°37.261 117.5 0.4 205 9.4
2004-08-18 09:07:41 51°9.109 2°37.261 117.8 0.4 203 9.4
2004-08-18 09:07:47 51°9.109 2°37.26 118 0.5 208 9.4
2004-08-18 09:07:52 51°9.108 2°37.26 118.3 0.3 206 9.4
2004-08-18 09:07:55 51°9.108 2°37.26 118.4 0.5 206 9.4
2004-08-18 09:08:00 51°9.108 2°37.259 118.8 0.4 204 9.4
2004-08-18 09:08:05 51°9.107 2°37.259 119 0.4 208 9.4
2004-08-18 09:08:11 51°9.107 2°37.259 119.5 0.3 209 9.4
2004-08-18 09:08:16 51°9.106 2°37.258 119.7 0.4 209 9.4
2004-08-18 09:08:20 51°9.106 2°37.258 119.7 0.3 208 9.4
2004-08-18 09:08:25 51°9.105 2°37.257 119.8 0.3 211 9.4
2004-08-18 09:08:31 51°9.105 2°37.257 120.1 0.4 209 9.4
2004-08-18 09:08:37 51°9.104 2°37.256 120.2 0.4 207 9.4
2004-08-18 09:08:41 51°9.104 2°37.256 120.4 0.4 205 9.4
2004-08-18 09:08:45 51°9.104 2°37.256 120.6 0.4 209 9.4
2004-08-18 09:08:48 51°9.103 2°37.255 120.8 0.4 207 9.5
2004-08-18 09:08:56 51°9.103 2°37.255 121 0.5 206 9.4
2004-08-18 09:09:00 51°9.102 2°37.254 120.9 0.4 205 9.4
2004-08-18 09:09:06 51°9.102 2°37.254 120.6 0.4 206 9.4
2004-08-18 09:09:10 51°9.101 2°37.253 120.2 0.4 203 9.4
2004-08-18 09:09:16 51°9.101 2°37.253 119.8 0.4 203 9.4
2004-08-18 09:09:20 51°9.1 2°37.253 119.4 0.4 203 9.4
2004-08-18 09:09:26 51°9.1 2°37.252 119 0.4 201 9.4
2004-08-18 09:09:32 51°9.099 2°37.252 118.6 0.3 198 9.4
2004-08-18 09:09:35 51°9.099 2°37.252 118.2 0.5 198 9.4
2004-08-18 09:09:40 51°9.098 2°37.251 117.9 0.4 196 9.4
2004-08-18 09:09:45 51°9.098 2°37.251 117.5 0.4 198 9.4
2004-08-18 09:09:51 51°9.097 2°37.251 116.8 0.3 195 9.4
2004-08-18 09:09:56 51°9.096 2°37.251 116.3 0.4 194 9.4
2004-08-18 09:10:01 51°9.096 2°37.251 115.7 0.3 194 9.4
2004-08-18 09:10:04 51°9.096 2°37.25 115.1 0.4 195 9.4
2004-08-18 09:10:12 51°9.095 2°37.25 114.4 0.3 192 9.4
2004-08-18 09:10:15 51°9.095 2°37.25 114 0.4 192 9.4
2004-08-18 09:10:21 51°9.094 2°37.25 113.6 0.2 186 9.3
2004-08-18 09:10:26 51°9.094 2°37.25 113.2 0.4 189 9.4
2004-08-18 09:10:32 51°9.093 2°37.25 112.5 0.3 188 9.4
2004-08-18 09:10:35 51°9.093 2°37.25 112.2 0.3 188 9.3
2004-08-18 09:10:40 51°9.093 2°37.25 111.7 0.3 184 9.3
2004-08-18 09:10:47 51°9.092 2°37.249 111.1 0.4 186 9.4
2004-08-18 09:10:51 51°9.092 2°37.249 110.7 0.3 183 9.4
2004-08-18 09:10:56 51°9.091 2°37.249 110.1 0.3 183 9.4
2004-08-18 09:10:59 51°9.091 2°37.249 109.7 0.3 183 9.3
2004-08-18 09:11:05 51°9.09 2°37.249 109.4 0.3 181 9.3
2004-08-18 09:11:12 51°9.09 2°37.249 108.8 0.3 179 9.4
2004-08-18 09:11:16 51°9.09 2°37.249 108.7 0.3 182 9.4
2004-08-18 09:11:20 51°9.089 2°37.249 108.1 0.3 176 9.3
2004-08-18 09:11:25 51°9.089 2°37.249 108 0.3 182 9.3